Résultats du Marathon de Toulouse Métropole

Liste de résultats 2018

Place Dossard Nom Catégorie Temps réel Photos Diplôme Détails
1 4003 NAVARRO Nicolas SH 01:04:36
2 4020 WANJIKU Ladan SH 01:04:38
3 4016 BE Grégory SH 01:06:37
4 4002 CHEBEI Collins SH 01:09:40
5 4021 CEBRIAN Diego SH 01:11:48
6 4013 DENIZEAUX Paul SH 01:12:51
7 4004 PRADY Simon SH 01:13:12
8 4012 VERIEN Samy SH 01:13:34
9 4015 DUBOS Guillaume SH 01:13:36
10 9634 KARANJA Beth muthoni SF 01:14:20
11 4001 EMMANUEL Elim SH 01:14:30
12 4009 MIGNOT Thierry SH 01:15:17
13 4031 MACHARIAS Lucy SF 01:15:32
14 4032 PEREZ Jurebet JF 01:15:45
15 4018 AZZAZ Karim VH1 01:15:48
16 5092 BROCARD Philippe SH 01:16:41
17 5022 LABARTHE Jerôme SH 01:17:06
18 5018 LAPEZE Doris SH 01:17:09
19 5021 SELLES Clement SH 01:17:10
20 5024 DESTRUEL Sebastien VH1 01:17:32
21 4010 SIRIEYX Nicolas SH 01:17:36
22 6152 GINISTY Baptiste SH 01:18:13
23 4005 TRICOIRE Laurent SH 01:18:20
24 5122 FAYOLLE Julien SH 01:18:27
25 5103 TERRAL Philippe VH1 01:18:34
26 4042 SANCHEZ Fatiha SF 01:18:48
27 5031 SANCHEZ Patrick VH1 01:18:52
28 7728 ALAYRAC Jerome SH 01:18:57
29 5119 THOMAS Robin SH 01:19:21
30 4014 COUTAREL Jérôme VH1 01:19:22
31 5043 MAMOU Abdelkader VH1 01:19:38
32 5105 MASQUERE Pierre SH 01:19:43
33 5144 HANS Nicolas SH 01:19:45
34 5112 PIERROT Pascal SH 01:20:04
35 8144 DURAND Simon SH 01:20:09
36 5104 MILLET Nicolas SH 01:20:25
37 5145 DEMEURE Marc-olivier VH1 01:20:40
38 5068 MONTEGUT Alexandre SH 01:20:41
39 4036 GRUAU Emeline SF 01:20:46
40 4006 YAMNAINE Christophe SH 01:20:54
41 4040 BOUDJELLOULI Khadija SF 01:21:01
42 4019 CUTILLAS Sylvain SH 01:21:04
43 5084 FERRE Enrico VH1 01:21:08
44 5061 SOUALEM Ouari VH1 01:21:13
45 5072 GOUDET David SH 01:21:16
46 5085 MARCHANDISE Arthur SH 01:21:17
47 4045 LECOQ Salomé SF 01:21:21
48 5100 BEDOU Guillaume VH1 01:21:56
49 5035 DAUBANTON Benoit SH 01:22:05
50 4041 SAGNES Mathilde SF 01:22:10
51 6147 LORIOT Rémi SH 01:22:15
52 5027 BRINKHOFF Jeroen VH1 01:22:26
53 9809 LEBLANC Laurent VH2 01:22:28
54 5025 SAHUT Norbert VH2 01:22:35
55 5126 GABTENI Semi VH1 01:22:44
56 8286 THIRIET Yann SH 01:22:51
57 5118 CAVAILLES Cédric SH 01:22:53
58 6876 TARAN Maxime VH1 01:23:06
59 7474 HEBRAUD Benjamin SH 01:23:07
60 5115 CASTEX Florian EH 01:23:19
61 5120 LAROCHE Pierre-david VH1 01:23:20
62 6014 MAINE Patrick VH1 01:23:21
63 7983 RIVALS Frederic VH1 01:23:23
64 5023 DJEBLI Abderrahim VH2 01:23:23
65 7075 DIEBALL Bjoern VH1 01:23:29
66 6546 PERIE Quentin EH 01:23:30
67 9823 BARTHES Romain EH 01:23:32
68 6989 MULLER Lionel SH 01:23:32
69 4017 LIDOINE Maxime SH 01:23:40
70 5107 JUNG Adrien SH 01:23:41
71 5037 FOSSE Matthieu VH1 01:23:43
72 9648 RIPART Charles SH 01:23:47
73 5010 JOURDA Stéphane VH1 01:23:48
74 5147 NORIS Pierre VH1 01:23:55
75 9803 DE PONCHEVILLE Quentin SH 01:23:57
76 7108 BLONDIAUX Camille SH 01:24:02
77 5116 DELFAU Boris VH1 01:24:04
78 7528 MENDEZ Laurent EH 01:24:08
79 5082 LABORIE Matthieu SH 01:24:11
80 5108 MARTEL Alexandre SH 01:24:12
81 5076 GIBERT Cylien SH 01:24:15
82 5048 GAUDIN Pierrick SH 01:24:16
83 8384 VANDEWYNGAERDE Victor EH 01:24:21
84 6001 VIRAMA MANICON Pierre SH 01:24:25
85 5091 LEPOULTEL Kévin SH 01:24:52
86 5123 DEMAN Rodolphe VH2 01:24:56
87 8234 ABECASSIS Gabriel SH 01:24:58
88 8178 GIBAUD Mathieu SH 01:24:58
89 8116 BENKHORIS Loïc VH1 01:24:58
90 8277 DURAND Matthias SH 01:25:00
91 7739 KNOCKAERT Toni VH1 01:25:04
92 6686 MUHAMMAD Khalid SH 01:25:04
93 8415 STEPHAN Hugo SH 01:25:08
94 6404 FLOUTARD Etienne SH 01:25:10
95 7100 GAUDIN Julien SH 01:25:19
96 7756 CARDUAT Guillaume SH 01:25:21
97 7410 GEHIN Franck VH2 01:25:24
98 6654 AUBAULT Cyril SH 01:25:26
99 8083 BORREDON Gabin JH 01:25:26
100 7600 GUERREIRO-BOCHEREAU Edouard VH1 01:25:27

Résultats

Organisé par

Nous contacter

Newsletter

Suivez-nous sur

 Facebook  Twitter  Youtube  RSS

Météo